Location: Unspecified
(0.0000°N, 0.0000°E)
Time: 11:44:01
(UTC+00:00)

LightSail 2 - Pass Details

Date: 18 August 2019
Orbit: 696 x 730 km, 24.0° (Epoch: 07 December)

Event Time Altitude Azimuth Distance (km) Brightness Sun altitude
Exits shadow 03:39:56 25° 42° (NE) 1,408 7.1 -34.9°
Drops below altitude 10° 03:43:23 10° 81° (E) 2,205 8.5 -34.1°
Sets 03:46:11 0° 93° (E) 3,133 9.4 -33.4°
